Eastsound, WA

5:51 PM PDT on October 19, 2017 (GMT -0700)
Orcas Island

Weather History for KORS - November, 2012

Change the Weather History Date:

Monday, November 26, 2012

  Actual Average (KFHR) Record (KFHR)
Temperature  
Mean Temperature 40 °F -  
Max Temperature 42 °F 45 °F 55 °F (2014)
Min Temperature 39 °F 37 °F 30 °F (2006)
Degree Days  
Heating Degree Days 24    
Moisture  
Dew Point 33 °F    
Average Humidity 75    
Maximum Humidity 87    
Minimum Humidity 66    
Precipitation  
Precipitation 0.00 in - - ()
Sea Level Pressure  
Sea Level Pressure 30.13 in    
Wind  
Wind Speed 5 mph (NNE)    
Max Wind Speed 8 mph    
Max Gust Speed -    
Visibility 10 miles    
Events      
Averages and records for this station are not official NWS values.
T = Trace of Precipitation, MM = Missing Value Source: NWS Daily Summary

Daily Weather History Graph

Daily Weather History Graph

Search for Another Location

Airport or City:

Trip Planner

Search our weather history database for the weather conditions in past years. The results will help you decide how hot, cold, wet, or windy it might be!

Date:

Astronomy

Nov. 26, 2012 Rise Set
Actual Time 7:37 AM PST 4:20 PM PST
Civil Twilight 7:01 AM PST 4:56 PM PST
Nautical Twilight 6:22 AM PST 5:35 PM PST
Astronomical Twilight 5:44 AM PST 6:13 PM PST
Moon 3:20 PM PST (11/26) 5:47 AM PST (11/26)
Length of Visible Light 9h 54m
Length of Day
8h 43m
Waxing Gibbous, 97% of the Moon is Illuminated
Nov 26
Waxing Gibbous
Nov 28
Full
Dec 6
Last Quarter
Dec 13
New
Dec 19
First Quarter

Hourly Weather History & Observations

Time (PST) Temp. Windchill Dew Point Humidity Pressure Visibility Wind Dir Wind Speed Gust Speed Precip Events Conditions
12:15 AM 41.0 °F 37.1 °F 35.6 °F 81% 30.27 in 10.0 mi NNE 5.8 mph - N/A   Clear
12:35 AM 41.0 °F 38.0 °F 35.6 °F 81% 30.26 in 10.0 mi North 4.6 mph - N/A   Clear
12:55 AM 41.0 °F 38.0 °F 35.6 °F 81% 30.25 in 10.0 mi North 4.6 mph - N/A   Clear
1:15 AM 41.0 °F 37.1 °F 35.6 °F 81% 30.24 in 10.0 mi North 5.8 mph - N/A   Clear
1:35 AM 41.0 °F 39.0 °F 35.6 °F 81% 30.23 in 10.0 mi NNE 3.5 mph - N/A   Clear
1:55 AM 41.0 °F 39.0 °F 33.8 °F 76% 30.23 in 10.0 mi NNE 3.5 mph - N/A   Clear
2:15 AM 41.0 °F 38.0 °F 33.8 °F 76% 30.23 in 10.0 mi NNE 4.6 mph - N/A   Clear
2:35 AM 41.0 °F 37.1 °F 32.0 °F 70% 30.23 in 10.0 mi NE 5.8 mph - N/A   Clear
2:55 AM 41.0 °F 37.1 °F 32.0 °F 70% 30.22 in 10.0 mi NNE 5.8 mph - N/A   Clear
3:15 AM 41.0 °F 38.0 °F 32.0 °F 70% 30.21 in 10.0 mi NE 4.6 mph - N/A   Clear
3:35 AM 41.0 °F 35.8 °F 32.0 °F 70% 30.21 in 10.0 mi NE 8.1 mph - N/A   Clear
3:55 AM 41.0 °F 38.0 °F 32.0 °F 70% 30.21 in 10.0 mi NNE 4.6 mph - N/A   Clear
4:15 AM 41.0 °F 36.4 °F 32.0 °F 70% 30.21 in 10.0 mi NE 6.9 mph - N/A   Clear
4:35 AM 41.0 °F 36.4 °F 32.0 °F 70% 30.20 in 10.0 mi NNE 6.9 mph - N/A   Clear
4:55 AM 41.0 °F 36.4 °F 32.0 °F 70% 30.20 in 10.0 mi NE 6.9 mph - N/A   Clear
5:15 AM 39.2 °F 35.0 °F 33.8 °F 81% 30.19 in 10.0 mi NNE 5.8 mph - N/A   Clear
5:35 AM 41.0 °F 36.4 °F 32.0 °F 70% 30.19 in 10.0 mi North 6.9 mph - N/A   Clear
5:55 AM 41.0 °F 35.8 °F 32.0 °F 70% 30.19 in 10.0 mi ENE 8.1 mph - N/A   Clear
6:15 AM 41.0 °F 39.0 °F 32.0 °F 70% 30.18 in 10.0 mi NE 3.5 mph - N/A   Clear
6:55 AM 39.2 °F 34.2 °F 32.0 °F 75% 30.17 in 10.0 mi NE 6.9 mph - N/A   Clear
7:15 AM 39.2 °F - 32.0 °F 75% 30.18 in 10.0 mi Calm Calm - N/A   Clear
7:35 AM 39.2 °F 33.6 °F 32.0 °F 75% 30.16 in 10.0 mi NNE 8.1 mph - N/A   Clear
7:55 AM 39.2 °F 34.2 °F 32.0 °F 75% 30.16 in 10.0 mi NNE 6.9 mph - N/A   Clear
8:15 AM 39.2 °F 34.2 °F 32.0 °F 75% 30.15 in 10.0 mi NNE 6.9 mph - N/A   Clear
8:35 AM 39.2 °F - 32.0 °F 75% 30.15 in 10.0 mi Calm Calm - N/A   Clear
8:55 AM 39.2 °F - 32.0 °F 75% 30.15 in 10.0 mi Calm Calm - N/A   Clear
9:15 AM 39.2 °F 35.0 °F 32.0 °F 75% 30.15 in 10.0 mi North 5.8 mph - N/A   Clear
9:35 AM 39.2 °F 35.9 °F 32.0 °F 75% 30.16 in 10.0 mi North 4.6 mph - N/A   Clear
9:55 AM 39.2 °F 35.9 °F 32.0 °F 75% 30.15 in 10.0 mi NNE 4.6 mph - N/A   Clear
10:15 AM 39.2 °F 35.0 °F 32.0 °F 75% 30.14 in 10.0 mi NNE 5.8 mph - N/A   Clear
10:35 AM 41.0 °F 37.1 °F 32.0 °F 70% 30.15 in 10.0 mi NNE 5.8 mph - N/A   Clear
10:55 AM 41.0 °F 39.0 °F 32.0 °F 70% 30.15 in 10.0 mi NNE 3.5 mph - N/A   Clear
11:15 AM 41.0 °F 39.0 °F 32.0 °F 70% 30.14 in 10.0 mi NNE 3.5 mph - N/A   Clear
11:35 AM 41.0 °F 38.0 °F 32.0 °F 70% 30.14 in 10.0 mi North 4.6 mph - N/A   Clear
11:55 AM 41.0 °F 37.1 °F 32.0 °F 70% 30.13 in 10.0 mi NNE 5.8 mph - N/A   Clear
12:15 PM 42.8 °F 38.0 °F 32.0 °F 66% 30.13 in 10.0 mi North 8.1 mph - N/A   Clear
12:35 PM 42.8 °F 38.6 °F 32.0 °F 66% 30.12 in 10.0 mi NNE 6.9 mph - N/A   Clear
12:55 PM 42.8 °F 38.0 °F 33.8 °F 70% 30.11 in 10.0 mi North 8.1 mph - N/A   Clear
1:15 PM 42.8 °F 38.0 °F 35.6 °F 76% 30.11 in 10.0 mi North 8.1 mph - N/A   Clear
1:35 PM 42.8 °F 38.0 °F 35.6 °F 76% 30.10 in 10.0 mi North 8.1 mph - N/A   Clear
1:55 PM 42.8 °F 38.6 °F 35.6 °F 76% 30.10 in 10.0 mi North 6.9 mph - N/A   Clear
2:15 PM 42.8 °F 38.6 °F 33.8 °F 70% 30.09 in 10.0 mi North 6.9 mph - N/A   Clear
2:35 PM 42.8 °F 39.3 °F 33.8 °F 70% 30.08 in 10.0 mi North 5.8 mph - N/A   Clear
2:55 PM 42.8 °F 39.3 °F 33.8 °F 70% 30.08 in 10.0 mi North 5.8 mph - N/A   Clear
3:15 PM 42.8 °F 38.0 °F 35.6 °F 76% 30.08 in 10.0 mi NW 8.1 mph - N/A   Clear
3:35 PM 42.8 °F 38.6 °F 35.6 °F 76% 30.08 in 10.0 mi NNW 6.9 mph - N/A   Clear
3:55 PM 41.0 °F 36.4 °F 35.6 °F 81% 30.08 in 10.0 mi North 6.9 mph - N/A   Clear
4:15 PM 41.0 °F 36.4 °F 35.6 °F 81% 30.08 in 10.0 mi North 6.9 mph - N/A   Clear
4:35 PM 41.0 °F 36.4 °F 35.6 °F 81% 30.08 in 10.0 mi North 6.9 mph - N/A   Clear
4:55 PM 41.0 °F 37.1 °F 35.6 °F 81% 30.07 in 10.0 mi North 5.8 mph - N/A   Clear
5:15 PM 41.0 °F - 37.4 °F 87% 30.07 in 10.0 mi Calm Calm - N/A   Clear
5:35 PM 41.0 °F 36.4 °F 37.4 °F 87% 30.07 in 10.0 mi North 6.9 mph - N/A   Clear
5:55 PM 41.0 °F - 35.6 °F 81% 30.07 in 10.0 mi Calm Calm - N/A   Clear
6:15 PM 41.0 °F - 35.6 °F 81% 30.07 in 10.0 mi Calm Calm - N/A   Clear
6:35 PM 41.0 °F 38.0 °F 35.6 °F 81% 30.07 in 10.0 mi NNE 4.6 mph - N/A   Clear
6:55 PM 41.0 °F 37.1 °F 35.6 °F 81% 30.07 in 10.0 mi North 5.8 mph - N/A   Clear
7:15 PM 41.0 °F 39.0 °F 37.4 °F 87% 30.07 in 10.0 mi North 3.5 mph - N/A   Clear
7:35 PM 41.0 °F 38.0 °F 37.4 °F 87% 30.07 in 10.0 mi North 4.6 mph - N/A   Clear
7:55 PM 41.0 °F 37.1 °F 37.4 °F 87% 30.07 in 10.0 mi North 5.8 mph - N/A   Clear
8:15 PM 41.0 °F - 32.0 °F 70% 30.07 in 10.0 mi Calm Calm - N/A   Clear
8:35 PM 41.0 °F - 32.0 °F 70% 30.07 in 10.0 mi Calm Calm - N/A   Clear
8:55 PM 41.0 °F 38.0 °F 32.0 °F 70% 30.07 in 10.0 mi NNE 4.6 mph - N/A   Clear
9:15 PM 41.0 °F 37.1 °F 32.0 °F 70% 30.07 in 10.0 mi North 5.8 mph - N/A   Clear
9:35 PM 41.0 °F 37.1 °F 32.0 °F 70% 30.07 in 10.0 mi North 5.8 mph - N/A   Clear
9:55 PM 41.0 °F 38.0 °F 32.0 °F 70% 30.08 in 10.0 mi North 4.6 mph - N/A   Clear
10:15 PM 41.0 °F 38.0 °F 32.0 °F 70% 30.08 in 10.0 mi NNE 4.6 mph - N/A   Clear
10:35 PM 41.0 °F 39.0 °F 32.0 °F 70% 30.08 in 10.0 mi North 3.5 mph - N/A   Clear
10:55 PM 41.0 °F 39.0 °F 32.0 °F 70% 30.08 in 10.0 mi NNE 3.5 mph - N/A   Clear
11:15 PM 41.0 °F 38.0 °F 32.0 °F 70% 30.08 in 10.0 mi NNE 4.6 mph - N/A   Clear
11:55 PM 41.0 °F - 32.0 °F 70% 30.09 in 10.0 mi Calm Calm - N/A   Clear